Regional Weather Roundup
Issued by NWS

Home | Current Version | Previous Version | Graphics & Text | Print | Product List | Glossary On
Versions: 1 2 3 4 5 6 7 8 9 10 11 12 13 14 15 16 17 18 19 20 21 22 23 24 25 26 27 28 29 30 31 32 33 34 35 36 37 38 39 40 41 42 43 44 45 46 47 48 49 50
000
ASUS43 KMKX 250510
RWRWI

WISCONSIN REGIONAL WEATHER ROUNDUP
NATIONAL WEATHER SERVICE MILWAUKEE/SULLIVAN WI
1100 PM CST SAT FEB 24 2018

NOTE: "FAIR" INDICATES FEW OR NO CLOUDS BELOW 12,000 FEET WITH NO
SIGNIFICANT WEATHER AND/OR OBSTRUCTIONS TO VISIBILITY.

WIZ001-002-006>008-014>016-023>028-250600-
NORTHWEST WISCONSIN

CITY           SKY/WX    TMP DP  RH WIND       PRES   REMARKS
SUPERIOR ARPT  LGT SNOW  27  26  96 NE13G20   29.49F WCI  16
ASHLAND        LGT SNOW  27  26  96 NE10      29.48F VSB 3/4 WCI  17
HAYWARD        LGT SNOW  29  28  96 CALM      29.43F VSB 3/4
SIREN          LGT SNOW  28  27  98 NE3       29.43F
CUMBERLAND     LGT SNOW  28  28 100 E3        29.42F
RICE LAKE      LGT SNOW  30  30  99 E3        29.44F
CHETEK         LGT SNOW  30  30  99 SE3       29.43F
LADYSMITH      LGT SNOW  30  29  96 SE6       29.44F WCI  24
EAU CLAIRE     LGT SNOW  31  30  96 SE3       29.43F FOG
MENOMONIE      LGT SNOW  31  31 100 CALM      29.44F
NEW RICHMOND   LGT SNOW  30  28  95 CALM      29.43F
OSCEOLA        LGT SNOW  30  30 100 CALM      29.46F VSB 1
$$

WIZ003>005-009-010-017-018-250600-
NORTH CENTRAL WISCONSIN

CITY           SKY/WX    TMP DP  RH WIND       PRES   REMARKS
MANITOWISH WTR LGT SNOW  27  27 100 SE7       29.44F WCI  20
ARBOR VITAE    LGT SNOW  29  28  93 SE8       29.44F VSB 3/4 WCI  21
WOODRUFF       LGT SNOW  29  28  93 SE8       29.44F VSB 3/4 WCI  21
RHINELANDER    LGT SNOW  29  27  92 SE13G22   29.43F VSB 3/4 WCI  19
EAGLE RIVER    LGT SNOW  28  27  98 SE10G18   29.43F VSB 3/4 WCI  18
LAND O LAKES   SNOW      28  26  92 SE12G20   29.46F VSB 1/4 WCI  18
PHILLIPS       LGT SNOW  28  28 100 SE7       29.43F VSB 3/4 WCI  21
TOMAHAWK       LGT SNOW  29  27  95 CALM      29.45F VSB 3/4
MEDFORD        MIX PCPN  29  28  96 SE7       29.42F VSB 3/4 WCI  22
MERRILL        SNOW      31  31 100 SE8       29.44F VSB 1/2 WCI  23
$$

WIZ029-030-035-036-043>047-250600-
CENTRAL WISCONSIN

CITY           SKY/WX    TMP DP  RH WIND       PRES   REMARKS
WAUSAU         LGT SNOW  31  31 100 SE7       29.42F VSB 1   WCI  24
MOSINEE        NOT AVBL
MARSHFIELD     SNOW      31  31 100 SE5       29.43F VSB 1/2 WCI  26
STEVENS POINT  MIX PCPN  31  31 100 SE5       29.45F WCI  27
WAUPACA        RAIN      36  33  91 E13G18    29.45F WCI  27
WAUTOMA        LGT SNOW  34  32  93 VRB3      29.46F FOG
WISC RAPIDS    LGT SNOW  32  30  92 MISG      29.45F VSB 3/4
CAMP DOUGLAS   LGT SNOW  32  32 100 E6        29.43F FOG     WCI  26
$$

WIZ011>013-019>022-031-037>040-048>050-250600-
NORTHEAST WISCONSIN

CITY           SKY/WX    TMP DP  RH WIND       PRES   REMARKS
ANTIGO         LGT SNOW  29  29  99 E20G25    29.42F VSB 1   WCI  16
SHAWANO        LGT RAIN  35  32  90 SE10G16   29.49F WCI  27
OCONTO         CLOUDY    32  31  96 SE13      29.51F WCI  22
STURGEON BAY   MIX PCPN  32  31  96 SE20G25   29.52F FOG     WCI  20
GREEN BAY      LGT RAIN  34  31  88 SE17G26   29.47F WCI  23
MANITOWOC      LGT RAIN  34  34 100 SE17      29.51F FOG     WCI  23
APPLETON       LGT RAIN  34  34 100 SE18      29.45F WCI  23
CLINTONVILLE   LGT SNOW  34  32  94 SE12      29.47F WCI  25
OSHKOSH        RAIN      36  34  92 SE15      29.44F FOG     WCI  27
$$

WIZ032>034-041-042-053>061-250600-
SOUTHWEST WISCONSIN

CITY           SKY/WX    TMP DP  RH WIND       PRES   REMARKS
LA CROSSE      CLOUDY    34  33  96 S5        29.46F WCI  30
SPARTA         LGT SNOW  31  31 100 CALM      29.46F
VIROQUA        CLOUDY    32  32 100 SW7       29.45F WCI  26
BOSCOBEL       CLOUDY    36  34  92 SW7       29.51S WCI  30
PRAIRIE DU CHI CLOUDY    33  32  96 W16G28    29.53R WCI  23
PLATTEVILLE    CLOUDY    35  35 100 W20G25    29.51F WCI  24
$$

WIZ056-057-062-063-064-067-068-250600-
SOUTH CENTRAL WISCONSIN

CITY           SKY/WX    TMP DP  RH WIND       PRES   REMARKS
REEDSBURG      LGT RAIN  35  35 100 SW3       29.46F
BARABOO/DELLS  RAIN      36  35  96 S5        29.45F WCI  32
LONE ROCK      LGT RAIN  36  36 100 SW8       29.47F FOG     WCI  30
MINERAL POINT  LGT RAIN  36  36 100 SW10      29.48F WCI  28
MADISON        LGT RAIN  37  37 100 SW5       29.48R FOG     WCI  33
MIDDLETON      CLOUDY    39  39 100 SW9       29.47S WCI  33
WATERTOWN      LGT RAIN  38  38 100 S9        29.45F WCI  31
MONROE         LGT RAIN  39  37  93 SW16      29.47S WCI  30
JANESVILLE     LGT RAIN  37  37 100 CALM      29.47R
$$

WIZ051-052-058>065-066-070>072-250600-
SOUTHEAST WISCONSIN

CITY           SKY/WX    TMP DP  RH WIND       PRES   REMARKS
MILWAUKEE      LGT RAIN  38  37  97 SE20G28   29.47F FOG     WCI  28
WAUKESHA       CLOUDY    36  36 100 SE15G24   29.46F FOG     WCI  26
MILWAUKEE/TIMM DRIZZLE   36  34  93 SE16G22   29.47F WCI  26
RACINE         CLOUDY    38  37  97 SE14      29.48F FOG     WCI  30
BURLINGTON     FOG       39  38  97 SE12G17   29.44F VSB 1   WCI  31
KENOSHA        CLOUDY    39  37  92 SE15      29.46F FOG     WCI  31
FOND DU LAC    HVY RAIN  37  33  85 SE16G26   29.43F FOG     WCI  28
SHEBOYGAN      LGT RAIN  35  35 100 SE13G25   29.48F FOG     WCI  26
WEST BEND      HVY RAIN  36  36 100 SE12      29.45F WCI  27
JUNEAU         LGT RAIN  36  35  97 SE14G23   29.44F WCI  27
$$

LSZ147-162-250600-
LAKE SUPERIOR

STATION/POSITION TIME  TEMP    WIND        PRES    WAVE
                       AIR SEA DIR/SP/G            HT/PER
                 (UTC) (F)     (DEG/KT/KT) (MB)    (FT/S)
DEVILS ISLAND    0500   29      80/ 22/ 26 1000.1F
SAXON HARBOR     0500   28      60/  3/  8  998.3
$$

LMZ867-665-643>646-250600-
LAKE MICHIGAN

STATION/POSITION TIME  TEMP    WIND        PRES    WAVE
                       AIR SEA DIR/SP/G            HT/PER
                 (UTC) (F)     (DEG/KT/KT) (MB)    (FT/S)
NORTHPORT PIER   0421   32                 1003.0F
KEWAUNEE LAKESHO 0442   34     130/ 14/ 19 1000.1F
SHEBOYGAN LAKESH 0500   35     140/ 18/ 21  998.8F
PORT WASHINGTON  0441   37     120/  8/ 12 1000.3F
KENOSHA   LAKESH 0500   37     140/ 14/ 16  998.0
$$

TC  - TEMPERATURE IN CELSIUS
VSB - VISIBILITY IN STATUTE MILES
WCI - WIND CHILL INDEX
HX  - HEAT INDEX




USA.gov is the U.S. government's official web portal to all federal, state and local government web resources and services.